Year,Month,Day,Hour,Minute,Value (Times are PST for temperature in C)
2022,04,17,00,00,5.10
2022,04,17,00,01,5.10
2022,04,17,00,02,5.10
2022,04,17,00,03,5.10
2022,04,17,00,04,5.10
2022,04,17,00,05,5.10
2022,04,17,00,06,5.10
2022,04,17,00,07,5.10
2022,04,17,00,08,5.10
2022,04,17,00,09,5.10
2022,04,17,00,10,5.20
2022,04,17,00,11,5.10
2022,04,17,00,12,5.10
2022,04,17,00,13,5.10
2022,04,17,00,14,5.10
2022,04,17,00,15,5.10
2022,04,17,00,16,5.10
2022,04,17,00,17,5.10
2022,04,17,00,18,5.10
2022,04,17,00,19,5.10
2022,04,17,00,20,5.10
2022,04,17,00,21,5.10
2022,04,17,00,22,5.10
2022,04,17,00,23,5.10
2022,04,17,00,24,5.10
2022,04,17,00,25,5.10
2022,04,17,00,26,5.10
2022,04,17,00,27,5.10
2022,04,17,00,28,5.10
2022,04,17,00,29,5.00
2022,04,17,00,30,5.00
2022,04,17,00,31,5.10
2022,04,17,00,32,5.10
2022,04,17,00,33,5.10
2022,04,17,00,34,5.10
2022,04,17,00,35,5.10
2022,04,17,00,36,5.10
2022,04,17,00,37,5.10
2022,04,17,00,38,5.10
2022,04,17,00,39,5.20
2022,04,17,00,40,5.20
2022,04,17,00,41,5.20
2022,04,17,00,42,5.20
2022,04,17,00,43,5.20
2022,04,17,00,44,5.20
2022,04,17,00,45,5.20
2022,04,17,00,46,5.30
2022,04,17,00,47,5.30
2022,04,17,00,48,5.30
2022,04,17,00,49,5.30
2022,04,17,00,50,5.30
2022,04,17,00,51,5.30
2022,04,17,00,52,5.30
2022,04,17,00,53,5.30
2022,04,17,00,54,5.30
2022,04,17,00,55,5.30
2022,04,17,00,56,5.30
2022,04,17,00,57,5.30
2022,04,17,00,58,5.30
2022,04,17,00,59,5.30
2022,04,17,01,00,5.30
2022,04,17,01,01,5.30
2022,04,17,01,02,5.30
2022,04,17,01,03,5.30
2022,04,17,01,04,5.30
2022,04,17,01,05,5.30
2022,04,17,01,06,5.30
2022,04,17,01,07,5.30
2022,04,17,01,08,5.30
2022,04,17,01,09,5.30
2022,04,17,01,10,5.30
2022,04,17,01,11,5.20
2022,04,17,01,12,5.20
2022,04,17,01,13,5.20
2022,04,17,01,14,5.20
2022,04,17,01,15,5.20
2022,04,17,01,16,5.20
2022,04,17,01,17,5.20
2022,04,17,01,18,5.20
2022,04,17,01,19,5.20
2022,04,17,01,20,5.20
2022,04,17,01,21,5.20
2022,04,17,01,22,5.20
2022,04,17,01,23,5.10
2022,04,17,01,24,5.10
2022,04,17,01,25,5.10
2022,04,17,01,26,5.10
2022,04,17,01,27,5.10
2022,04,17,01,28,5.10
2022,04,17,01,29,5.10
2022,04,17,01,30,5.10
2022,04,17,01,31,5.10
2022,04,17,01,32,5.10
2022,04,17,01,33,5.10
2022,04,17,01,34,5.10
2022,04,17,01,35,5.10
2022,04,17,01,36,5.10
2022,04,17,01,37,5.10
2022,04,17,01,38,5.10
2022,04,17,01,39,5.10
2022,04,17,01,40,5.20
2022,04,17,01,41,5.20
2022,04,17,01,42,5.20
2022,04,17,01,43,5.20
2022,04,17,01,44,5.20
2022,04,17,01,45,5.20
2022,04,17,01,46,5.20
2022,04,17,01,47,5.20
2022,04,17,01,48,5.20
2022,04,17,01,49,5.20
2022,04,17,01,50,5.20
2022,04,17,01,51,5.20
2022,04,17,01,52,5.10
2022,04,17,01,53,5.10
2022,04,17,01,54,5.10
2022,04,17,01,55,5.10
2022,04,17,01,56,5.10
2022,04,17,01,57,5.10
2022,04,17,01,58,5.00
2022,04,17,01,59,4.90
2022,04,17,02,00,4.90
2022,04,17,02,01,4.90
2022,04,17,02,02,4.90
2022,04,17,02,03,4.90
2022,04,17,02,04,4.90
2022,04,17,02,05,4.80
2022,04,17,02,06,4.70
2022,04,17,02,07,4.70
2022,04,17,02,08,4.70
2022,04,17,02,09,4.60
2022,04,17,02,10,4.60
2022,04,17,02,11,4.60
2022,04,17,02,12,4.60
2022,04,17,02,13,4.60
2022,04,17,02,14,4.60
2022,04,17,02,15,4.60
2022,04,17,02,16,4.60
2022,04,17,02,17,4.60
2022,04,17,02,18,4.60
2022,04,17,02,19,4.50
2022,04,17,02,20,4.50
2022,04,17,02,21,4.50
2022,04,17,02,22,4.50
2022,04,17,02,23,4.50
2022,04,17,02,24,4.50
2022,04,17,02,25,4.50
2022,04,17,02,26,4.50
2022,04,17,02,27,4.60
2022,04,17,02,28,4.60
2022,04,17,02,29,4.60
2022,04,17,02,30,4.60
2022,04,17,02,31,4.60
2022,04,17,02,32,4.60
2022,04,17,02,33,4.60
2022,04,17,02,34,4.60
2022,04,17,02,35,4.60
2022,04,17,02,36,4.60
2022,04,17,02,37,4.60
2022,04,17,02,38,4.60
2022,04,17,02,39,4.60
2022,04,17,02,40,4.60
2022,04,17,02,41,4.60
2022,04,17,02,42,4.60
2022,04,17,02,43,4.60
2022,04,17,02,44,4.60
2022,04,17,02,45,4.60
2022,04,17,02,46,4.60
2022,04,17,02,47,4.60
2022,04,17,02,48,4.60
2022,04,17,02,49,4.60
2022,04,17,02,50,4.60
2022,04,17,02,51,4.60
2022,04,17,02,52,4.60
2022,04,17,02,53,4.60
2022,04,17,02,54,4.60
2022,04,17,02,55,4.60
2022,04,17,02,56,4.60
2022,04,17,02,57,4.60
2022,04,17,02,58,4.60
2022,04,17,02,59,4.60
2022,04,17,03,00,4.60
2022,04,17,03,01,4.60
2022,04,17,03,02,4.60
2022,04,17,03,03,4.60
2022,04,17,03,04,4.50
2022,04,17,03,05,4.50
2022,04,17,03,06,4.50
2022,04,17,03,07,4.50
2022,04,17,03,08,4.50
2022,04,17,03,09,4.50
2022,04,17,03,10,4.50
2022,04,17,03,11,4.50
2022,04,17,03,12,4.50
2022,04,17,03,13,4.50
2022,04,17,03,14,4.50
2022,04,17,03,15,4.50
2022,04,17,03,16,4.50
2022,04,17,03,17,4.50
2022,04,17,03,18,4.50
2022,04,17,03,19,4.40
2022,04,17,03,20,4.40
2022,04,17,03,21,4.40
2022,04,17,03,22,4.40
2022,04,17,03,23,4.40
2022,04,17,03,24,4.40
2022,04,17,03,25,4.30
2022,04,17,03,26,4.30
2022,04,17,03,27,4.30
2022,04,17,03,28,4.30
2022,04,17,03,29,4.30
2022,04,17,03,30,4.30
2022,04,17,03,31,4.30
2022,04,17,03,32,4.30
2022,04,17,03,33,4.30
2022,04,17,03,34,4.30
2022,04,17,03,35,4.30
2022,04,17,03,36,4.30
2022,04,17,03,37,4.30
2022,04,17,03,38,4.30
2022,04,17,03,39,4.30
2022,04,17,03,40,4.30
2022,04,17,03,41,4.40
2022,04,17,03,42,4.40
2022,04,17,03,43,4.40
2022,04,17,03,44,4.40
2022,04,17,03,45,4.40
2022,04,17,03,46,4.40
2022,04,17,03,47,4.30
2022,04,17,03,48,4.30
2022,04,17,03,49,4.30
2022,04,17,03,50,4.30
2022,04,17,03,51,4.30
2022,04,17,03,52,4.30
2022,04,17,03,53,4.30
2022,04,17,03,54,4.30
2022,04,17,03,55,4.30
2022,04,17,03,56,4.30
2022,04,17,03,57,4.30
2022,04,17,03,58,4.40
2022,04,17,03,59,4.40
2022,04,17,04,00,4.40
2022,04,17,04,01,4.30
2022,04,17,04,02,4.40
2022,04,17,04,03,4.40
2022,04,17,04,04,4.40
2022,04,17,04,05,4.40
2022,04,17,04,06,4.30
2022,04,17,04,07,4.30
2022,04,17,04,08,4.30
2022,04,17,04,09,4.30
2022,04,17,04,10,4.30
2022,04,17,04,11,4.30
2022,04,17,04,12,4.30
2022,04,17,04,13,4.30
2022,04,17,04,14,4.30
2022,04,17,04,15,4.30
2022,04,17,04,16,4.30
2022,04,17,04,17,4.30
2022,04,17,04,18,4.30
2022,04,17,04,19,4.30
2022,04,17,04,20,4.30
2022,04,17,04,21,4.20
2022,04,17,04,22,4.20
2022,04,17,04,23,4.20
2022,04,17,04,24,4.20
2022,04,17,04,25,4.20
2022,04,17,04,26,4.10
2022,04,17,04,27,4.10
2022,04,17,04,28,4.10
2022,04,17,04,29,4.10
2022,04,17,04,30,4.00
2022,04,17,04,31,4.00
2022,04,17,04,32,4.00
2022,04,17,04,33,3.90
2022,04,17,04,34,3.90
2022,04,17,04,35,3.90
2022,04,17,04,36,3.90
2022,04,17,04,37,3.90
2022,04,17,04,38,3.90
2022,04,17,04,39,3.90
2022,04,17,04,40,3.80
2022,04,17,04,41,3.80
2022,04,17,04,42,3.80
2022,04,17,04,43,3.80
2022,04,17,04,44,3.70
2022,04,17,04,45,3.70
2022,04,17,04,46,3.60
2022,04,17,04,47,3.60
2022,04,17,04,48,3.60
2022,04,17,04,49,3.50
2022,04,17,04,50,3.50
2022,04,17,04,51,3.50
2022,04,17,04,52,3.50
2022,04,17,04,53,3.50
2022,04,17,04,54,3.40
2022,04,17,04,55,3.40
2022,04,17,04,56,3.40
2022,04,17,04,57,3.40
2022,04,17,04,58,3.40
2022,04,17,04,59,3.40
2022,04,17,05,00,3.40
2022,04,17,05,01,3.30
2022,04,17,05,02,3.30
2022,04,17,05,03,3.30
2022,04,17,05,04,3.30
2022,04,17,05,05,3.30
2022,04,17,05,06,3.30
2022,04,17,05,07,3.30
2022,04,17,05,08,3.30
2022,04,17,05,09,3.30
2022,04,17,05,10,3.30
2022,04,17,05,11,3.30
2022,04,17,05,12,3.30
2022,04,17,05,13,3.30
2022,04,17,05,14,3.30
2022,04,17,05,15,3.30
2022,04,17,05,16,3.20
2022,04,17,05,17,3.20
2022,04,17,05,18,3.20
2022,04,17,05,19,3.20
2022,04,17,05,20,3.10
2022,04,17,05,21,3.10
2022,04,17,05,22,3.20
2022,04,17,05,23,3.20
2022,04,17,05,24,3.20
2022,04,17,05,25,3.20
2022,04,17,05,26,3.20
2022,04,17,05,27,3.20
2022,04,17,05,28,3.20
2022,04,17,05,29,3.20
2022,04,17,05,30,3.20
2022,04,17,05,31,3.20
2022,04,17,05,32,3.20
2022,04,17,05,33,3.20
2022,04,17,05,34,3.20
2022,04,17,05,35,3.20
2022,04,17,05,36,3.20
2022,04,17,05,37,3.20
2022,04,17,05,38,3.20
2022,04,17,05,39,3.20
2022,04,17,05,40,3.20
2022,04,17,05,41,3.20
2022,04,17,05,42,3.20
2022,04,17,05,43,3.10
2022,04,17,05,44,3.10
2022,04,17,05,45,3.10
2022,04,17,05,46,3.10
2022,04,17,05,47,3.10
2022,04,17,05,48,3.10
2022,04,17,05,49,3.10
2022,04,17,05,50,3.10
2022,04,17,05,51,3.10
2022,04,17,05,52,3.10
2022,04,17,05,53,3.10
2022,04,17,05,54,3.10
2022,04,17,05,55,3.10
2022,04,17,05,56,3.10
2022,04,17,05,57,3.10
2022,04,17,05,58,3.10
2022,04,17,05,59,3.10
2022,04,17,06,00,3.10
2022,04,17,06,01,3.10
2022,04,17,06,02,3.10
2022,04,17,06,03,3.00
2022,04,17,06,04,2.90
2022,04,17,06,05,2.90
2022,04,17,06,06,2.90
2022,04,17,06,07,2.90
2022,04,17,06,08,2.80
2022,04,17,06,09,2.80
2022,04,17,06,10,2.80
2022,04,17,06,11,2.70
2022,04,17,06,12,2.70
2022,04,17,06,13,2.70
2022,04,17,06,14,2.70
2022,04,17,06,15,2.70
2022,04,17,06,16,2.60
2022,04,17,06,17,2.60
2022,04,17,06,18,2.60
2022,04,17,06,19,2.50
2022,04,17,06,20,2.50
2022,04,17,06,21,2.50
2022,04,17,06,22,2.50
2022,04,17,06,23,2.40
2022,04,17,06,24,2.40
2022,04,17,06,25,2.40
2022,04,17,06,26,2.40
2022,04,17,06,27,2.40
2022,04,17,06,28,2.40
2022,04,17,06,29,2.40
2022,04,17,06,30,2.40
2022,04,17,06,31,2.40
2022,04,17,06,32,2.30
2022,04,17,06,33,2.30
2022,04,17,06,34,2.30
2022,04,17,06,35,2.30
2022,04,17,06,36,2.30
2022,04,17,06,37,2.20
2022,04,17,06,38,2.20
2022,04,17,06,39,2.20
2022,04,17,06,40,2.20
2022,04,17,06,41,2.20
2022,04,17,06,42,2.20
2022,04,17,06,43,2.20
2022,04,17,06,44,2.20
2022,04,17,06,45,2.10
2022,04,17,06,46,2.10
2022,04,17,06,47,2.10
2022,04,17,06,48,2.10
2022,04,17,06,49,2.10
2022,04,17,06,50,2.10
2022,04,17,06,51,2.00
2022,04,17,06,52,2.00
2022,04,17,06,53,2.00
2022,04,17,06,54,2.00
2022,04,17,06,55,2.00
2022,04,17,06,56,2.00
2022,04,17,06,57,2.00
2022,04,17,06,58,2.00
2022,04,17,06,59,2.00
2022,04,17,07,00,2.00
2022,04,17,07,01,2.00
2022,04,17,07,02,2.00
2022,04,17,07,03,2.00
2022,04,17,07,04,2.00
2022,04,17,07,05,2.10
2022,04,17,07,06,2.10
2022,04,17,07,07,2.10
2022,04,17,07,08,2.10
2022,04,17,07,09,2.10
2022,04,17,07,10,2.10
2022,04,17,07,11,2.10
2022,04,17,07,12,2.10
2022,04,17,07,13,2.10
2022,04,17,07,14,2.10
2022,04,17,07,15,2.20
2022,04,17,07,16,2.20
2022,04,17,07,17,2.20
2022,04,17,07,18,2.20
2022,04,17,07,19,2.20
2022,04,17,07,20,2.30
2022,04,17,07,21,2.40
2022,04,17,07,22,2.40
2022,04,17,07,23,2.50
2022,04,17,07,24,2.60
2022,04,17,07,25,2.60
2022,04,17,07,26,2.70
2022,04,17,07,27,2.80
2022,04,17,07,28,2.90
2022,04,17,07,29,2.90
2022,04,17,07,30,3.00
2022,04,17,07,31,3.10
2022,04,17,07,32,3.10
2022,04,17,07,33,3.20
2022,04,17,07,34,3.20
2022,04,17,07,35,3.30
2022,04,17,07,36,3.30
2022,04,17,07,37,3.40
2022,04,17,07,38,3.50
2022,04,17,07,39,3.70
2022,04,17,07,40,3.80
2022,04,17,07,41,3.90
2022,04,17,07,42,3.90
2022,04,17,07,43,4.00
2022,04,17,07,44,4.00
2022,04,17,07,45,4.10
2022,04,17,07,46,4.20
2022,04,17,07,47,4.30
2022,04,17,07,48,4.40
2022,04,17,07,49,4.50
2022,04,17,07,50,4.60
2022,04,17,07,51,4.80
2022,04,17,07,52,4.90
2022,04,17,07,53,5.00
2022,04,17,07,54,5.10
2022,04,17,07,55,5.20
2022,04,17,07,56,5.30
2022,04,17,07,57,5.30
2022,04,17,07,58,5.40
2022,04,17,07,59,5.50
2022,04,17,08,00,5.60
2022,04,17,08,01,5.70
2022,04,17,08,02,5.70
2022,04,17,08,03,5.80
2022,04,17,08,04,5.80
2022,04,17,08,05,5.80
2022,04,17,08,06,5.80
2022,04,17,08,07,5.80
2022,04,17,08,08,5.90
2022,04,17,08,09,5.90
2022,04,17,08,10,5.90
2022,04,17,08,11,6.00
2022,04,17,08,12,6.00
2022,04,17,08,13,6.00
2022,04,17,08,14,6.10
2022,04,17,08,15,6.20
2022,04,17,08,16,6.20
2022,04,17,08,17,6.30
2022,04,17,08,18,6.30
2022,04,17,08,19,6.20
2022,04,17,08,20,6.20
2022,04,17,08,21,6.20
2022,04,17,08,22,6.10
2022,04,17,08,23,6.10
2022,04,17,08,24,6.10
2022,04,17,08,25,6.10
2022,04,17,08,26,6.10
2022,04,17,08,27,6.10
2022,04,17,08,28,6.10
2022,04,17,08,29,6.10
2022,04,17,08,30,6.00
2022,04,17,08,31,5.90
2022,04,17,08,32,5.90
2022,04,17,08,33,5.90
2022,04,17,08,34,5.80
2022,04,17,08,35,5.80
2022,04,17,08,36,5.80
2022,04,17,08,37,5.70
2022,04,17,08,38,5.70
2022,04,17,08,39,5.70
2022,04,17,08,40,5.70
2022,04,17,08,41,5.70
2022,04,17,08,42,5.70
2022,04,17,08,43,5.80
2022,04,17,08,44,5.80
2022,04,17,08,45,5.70
2022,04,17,08,46,5.70
2022,04,17,08,47,5.70
2022,04,17,08,48,5.70
2022,04,17,08,49,5.70
2022,04,17,08,50,5.70
2022,04,17,08,51,5.70
2022,04,17,08,52,5.70
2022,04,17,08,53,5.80
2022,04,17,08,54,5.90
2022,04,17,08,55,5.90
2022,04,17,08,56,5.90
2022,04,17,08,57,6.00
2022,04,17,08,58,6.00
2022,04,17,08,59,6.10
2022,04,17,09,00,6.20
2022,04,17,09,01,6.20
2022,04,17,09,02,6.30
2022,04,17,09,03,6.20
2022,04,17,09,04,6.20
2022,04,17,09,05,6.20
2022,04,17,09,06,6.20
2022,04,17,09,07,6.20
2022,04,17,09,08,6.20
2022,04,17,09,09,6.20
2022,04,17,09,10,6.20
2022,04,17,09,11,6.20
2022,04,17,09,12,6.20
2022,04,17,09,13,6.20
2022,04,17,09,14,6.20
2022,04,17,09,15,6.30
2022,04,17,09,16,6.40
2022,04,17,09,17,6.50
2022,04,17,09,18,6.60
2022,04,17,09,19,6.60
2022,04,17,09,20,6.60
2022,04,17,09,21,6.60
2022,04,17,09,22,6.60
2022,04,17,09,23,6.60
2022,04,17,09,24,6.60
2022,04,17,09,25,6.60
2022,04,17,09,26,6.50
2022,04,17,09,27,6.60
2022,04,17,09,28,6.60
2022,04,17,09,29,6.70
2022,04,17,09,30,6.60
2022,04,17,09,31,6.60
2022,04,17,09,32,6.50
2022,04,17,09,33,6.40
2022,04,17,09,34,6.50
2022,04,17,09,35,6.60
2022,04,17,09,36,6.80
2022,04,17,09,37,6.80
2022,04,17,09,38,6.80
2022,04,17,09,39,6.90
2022,04,17,09,40,6.90
2022,04,17,09,41,7.00
2022,04,17,09,42,6.80
2022,04,17,09,43,6.90
2022,04,17,09,44,7.00
2022,04,17,09,45,7.10
2022,04,17,09,46,7.20
2022,04,17,09,47,7.20
2022,04,17,09,48,7.10
2022,04,17,09,49,7.10
2022,04,17,09,50,7.00
2022,04,17,09,51,7.10
2022,04,17,09,52,7.20
2022,04,17,09,53,7.20
2022,04,17,09,54,7.20
2022,04,17,09,55,7.30
2022,04,17,09,56,7.30
2022,04,17,09,57,7.20
2022,04,17,09,58,7.20
2022,04,17,09,59,7.20
2022,04,17,10,00,7.10
2022,04,17,10,01,7.00
2022,04,17,10,02,7.00
2022,04,17,10,03,7.10
2022,04,17,10,04,7.10
2022,04,17,10,05,7.00
2022,04,17,10,06,7.00
2022,04,17,10,07,7.00
2022,04,17,10,08,6.90
2022,04,17,10,09,6.90
2022,04,17,10,10,6.80
2022,04,17,10,11,6.80
2022,04,17,10,12,6.90
2022,04,17,10,13,6.90
2022,04,17,10,14,7.00
2022,04,17,10,15,7.00
2022,04,17,10,16,7.20
2022,04,17,10,17,7.40
2022,04,17,10,18,7.50
2022,04,17,10,19,7.60
2022,04,17,10,20,7.70
2022,04,17,10,21,7.80
2022,04,17,10,22,7.70
2022,04,17,10,23,7.70
2022,04,17,10,24,7.70
2022,04,17,10,25,7.60
2022,04,17,10,26,7.60
2022,04,17,10,27,7.60
2022,04,17,10,28,7.70
2022,04,17,10,29,7.80
2022,04,17,10,30,7.80
2022,04,17,10,31,7.70
2022,04,17,10,32,7.70
2022,04,17,10,33,7.70
2022,04,17,10,34,7.80
2022,04,17,10,35,7.80
2022,04,17,10,36,7.70
2022,04,17,10,37,7.70
2022,04,17,10,38,7.70
2022,04,17,10,39,7.70
2022,04,17,10,40,7.70
2022,04,17,10,41,7.70
2022,04,17,10,42,7.70
2022,04,17,10,43,7.50
2022,04,17,10,44,7.50
2022,04,17,10,45,7.40
2022,04,17,10,46,7.50
2022,04,17,10,47,7.50
2022,04,17,10,48,7.50
2022,04,17,10,49,7.60
2022,04,17,10,50,7.60
2022,04,17,10,51,7.80
2022,04,17,10,52,7.90
2022,04,17,10,53,7.90
2022,04,17,10,54,7.80
2022,04,17,10,55,7.70
2022,04,17,10,56,7.70
2022,04,17,10,57,7.80
2022,04,17,10,58,7.80
2022,04,17,10,59,7.90
2022,04,17,11,00,7.90
2022,04,17,11,01,7.90
2022,04,17,11,02,8.10
2022,04,17,11,03,8.20
2022,04,17,11,04,8.10
2022,04,17,11,05,8.00
2022,04,17,11,06,8.00
2022,04,17,11,07,7.90
2022,04,17,11,08,7.80
2022,04,17,11,09,7.80
2022,04,17,11,10,7.80
2022,04,17,11,11,7.80
2022,04,17,11,12,7.80
2022,04,17,11,13,7.80
2022,04,17,11,14,7.80
2022,04,17,11,15,7.80
2022,04,17,11,16,7.80
2022,04,17,11,17,7.70
2022,04,17,11,18,7.60
2022,04,17,11,19,7.50
2022,04,17,11,20,7.40
2022,04,17,11,21,7.40
2022,04,17,11,22,7.50
2022,04,17,11,23,7.60
2022,04,17,11,24,7.60
2022,04,17,11,25,7.70
2022,04,17,11,26,7.70
2022,04,17,11,27,7.80
2022,04,17,11,28,7.90
2022,04,17,11,29,7.90
2022,04,17,11,30,8.00
2022,04,17,11,31,8.00
2022,04,17,11,32,7.90
2022,04,17,11,33,7.80
2022,04,17,11,34,7.90
2022,04,17,11,35,8.00
2022,04,17,11,36,7.90
2022,04,17,11,37,7.90
2022,04,17,11,38,7.90
2022,04,17,11,39,7.90
2022,04,17,11,40,7.90
2022,04,17,11,41,7.90
2022,04,17,11,42,7.90
2022,04,17,11,43,8.00
2022,04,17,11,44,8.20
2022,04,17,11,45,8.20
2022,04,17,11,46,8.20
2022,04,17,11,47,8.30
2022,04,17,11,48,8.40
2022,04,17,11,49,8.40
2022,04,17,11,50,8.30
2022,04,17,11,51,8.40
2022,04,17,11,52,8.30
2022,04,17,11,53,8.30
2022,04,17,11,54,8.30
2022,04,17,11,55,8.40
2022,04,17,11,56,8.50
2022,04,17,11,57,8.60
2022,04,17,11,58,8.50
2022,04,17,11,59,8.40
2022,04,17,12,00,8.40
2022,04,17,12,01,8.40
2022,04,17,12,02,8.50
2022,04,17,12,03,8.50
2022,04,17,12,04,8.50
2022,04,17,12,05,8.60
2022,04,17,12,06,8.70
2022,04,17,12,07,8.80
2022,04,17,12,08,8.90
2022,04,17,12,09,8.90
2022,04,17,12,10,8.90
2022,04,17,12,11,8.90
2022,04,17,12,12,9.00
2022,04,17,12,13,9.10
2022,04,17,12,14,9.20
2022,04,17,12,15,9.30
2022,04,17,12,16,9.20
2022,04,17,12,17,9.10
2022,04,17,12,18,8.90
2022,04,17,12,19,8.70
2022,04,17,12,20,8.70
2022,04,17,12,21,8.70
2022,04,17,12,22,8.70
2022,04,17,12,23,8.80
2022,04,17,12,24,8.90
2022,04,17,12,25,8.90
2022,04,17,12,26,8.90
2022,04,17,12,27,8.90
2022,04,17,12,28,8.90
2022,04,17,12,29,8.90
2022,04,17,12,30,8.90
2022,04,17,12,31,9.00
2022,04,17,12,32,9.00
2022,04,17,12,33,9.00
2022,04,17,12,34,8.80
2022,04,17,12,35,8.70
2022,04,17,12,36,8.70
2022,04,17,12,37,8.70
2022,04,17,12,38,8.70
2022,04,17,12,39,8.80
2022,04,17,12,40,8.80
2022,04,17,12,41,8.80
2022,04,17,12,42,8.90
2022,04,17,12,43,8.90
2022,04,17,12,44,8.90
2022,04,17,12,45,9.00
2022,04,17,12,46,9.10
2022,04,17,12,47,9.20
2022,04,17,12,48,9.30
2022,04,17,12,49,9.20
2022,04,17,12,50,9.10
2022,04,17,12,51,9.10
2022,04,17,12,52,9.10
2022,04,17,12,53,9.00
2022,04,17,12,54,9.10
2022,04,17,12,55,9.30
2022,04,17,12,56,9.40
2022,04,17,12,57,9.40
2022,04,17,12,58,9.50
2022,04,17,12,59,9.50
2022,04,17,13,00,9.50
2022,04,17,13,01,9.50
2022,04,17,13,02,9.30
2022,04,17,13,03,9.20
2022,04,17,13,04,9.30
2022,04,17,13,05,9.30
2022,04,17,13,06,9.40
2022,04,17,13,07,9.40
2022,04,17,13,08,9.40
2022,04,17,13,09,9.50
2022,04,17,13,10,9.70
2022,04,17,13,11,9.80
2022,04,17,13,12,9.90
2022,04,17,13,13,10.10
2022,04,17,13,14,10.10
2022,04,17,13,15,10.20
2022,04,17,13,16,10.30
2022,04,17,13,17,10.30
2022,04,17,13,18,10.40
2022,04,17,13,19,10.30
2022,04,17,13,20,10.30
2022,04,17,13,21,10.30
2022,04,17,13,22,10.30
2022,04,17,13,23,10.30
2022,04,17,13,24,10.30
2022,04,17,13,25,10.30
2022,04,17,13,26,10.30
2022,04,17,13,27,10.30
2022,04,17,13,28,10.30
2022,04,17,13,29,10.30
2022,04,17,13,30,10.20
2022,04,17,13,31,10.10
2022,04,17,13,32,10.10
2022,04,17,13,33,10.00
2022,04,17,13,34,9.90
2022,04,17,13,35,9.90
2022,04,17,13,36,10.00
2022,04,17,13,37,10.10
2022,04,17,13,38,10.30
2022,04,17,13,39,10.20
2022,04,17,13,40,10.20
2022,04,17,13,41,10.20
2022,04,17,13,42,10.10
2022,04,17,13,43,10.10
2022,04,17,13,44,10.00
2022,04,17,13,45,10.00
2022,04,17,13,46,10.10
2022,04,17,13,47,10.00
2022,04,17,13,48,9.90
2022,04,17,13,49,9.90
2022,04,17,13,50,10.00
2022,04,17,13,51,10.10
2022,04,17,13,52,10.30
2022,04,17,13,53,10.40
2022,04,17,13,54,10.40
2022,04,17,13,55,10.30
2022,04,17,13,56,10.10
2022,04,17,13,57,10.00
2022,04,17,13,58,10.10
2022,04,17,13,59,10.10
2022,04,17,14,00,10.10
2022,04,17,14,01,10.10
2022,04,17,14,02,10.20
2022,04,17,14,03,10.30
2022,04,17,14,04,10.30
2022,04,17,14,05,10.40
2022,04,17,14,06,10.40
2022,04,17,14,07,10.40
2022,04,17,14,08,10.40
2022,04,17,14,09,10.50
2022,04,17,14,10,10.60
2022,04,17,14,11,10.70
2022,04,17,14,12,10.70
2022,04,17,14,13,10.80
2022,04,17,14,14,10.90
2022,04,17,14,15,10.80
2022,04,17,14,16,10.80
2022,04,17,14,17,10.80
2022,04,17,14,18,10.60
2022,04,17,14,19,10.50
2022,04,17,14,20,10.40
2022,04,17,14,21,10.30
2022,04,17,14,22,10.20
2022,04,17,14,23,10.20
2022,04,17,14,24,10.10
2022,04,17,14,25,10.10
2022,04,17,14,26,10.00
2022,04,17,14,27,10.00
2022,04,17,14,28,10.10
2022,04,17,14,29,10.20
2022,04,17,14,30,10.20
2022,04,17,14,31,10.20
2022,04,17,14,32,10.30
2022,04,17,14,33,10.30
2022,04,17,14,34,10.30
2022,04,17,14,35,10.30
2022,04,17,14,36,10.40
2022,04,17,14,37,10.60
2022,04,17,14,38,10.70
2022,04,17,14,39,10.70
2022,04,17,14,40,10.70
2022,04,17,14,41,10.70
2022,04,17,14,42,10.60
2022,04,17,14,43,10.60
2022,04,17,14,44,10.60
2022,04,17,14,45,10.60
2022,04,17,14,46,10.60
2022,04,17,14,47,10.60
2022,04,17,14,48,10.60
2022,04,17,14,49,10.70
2022,04,17,14,50,10.70
2022,04,17,14,51,10.70
2022,04,17,14,52,10.80
2022,04,17,14,53,10.90
2022,04,17,14,54,10.90
2022,04,17,14,55,10.80
2022,04,17,14,56,10.80
2022,04,17,14,57,10.70
2022,04,17,14,58,10.80
2022,04,17,14,59,10.80
2022,04,17,15,00,10.70
2022,04,17,15,01,10.70
2022,04,17,15,02,10.70
2022,04,17,15,03,10.80
2022,04,17,15,04,10.90
2022,04,17,15,05,11.00
2022,04,17,15,06,11.10
2022,04,17,15,07,10.90
2022,04,17,15,08,10.90
2022,04,17,15,09,11.10
2022,04,17,15,10,11.20
2022,04,17,15,11,11.20
2022,04,17,15,12,11.20
2022,04,17,15,13,11.10
2022,04,17,15,14,11.00
2022,04,17,15,15,10.90
2022,04,17,15,16,11.00
2022,04,17,15,17,10.90
2022,04,17,15,18,10.90
2022,04,17,15,19,10.90
2022,04,17,15,20,10.90
2022,04,17,15,21,10.90
2022,04,17,15,22,11.00
2022,04,17,15,23,11.10
2022,04,17,15,24,11.20
2022,04,17,15,25,11.20
2022,04,17,15,26,11.20
2022,04,17,15,27,11.30
2022,04,17,15,28,11.30
2022,04,17,15,29,11.20
2022,04,17,15,30,11.20
2022,04,17,15,31,11.20
2022,04,17,15,32,11.10
2022,04,17,15,33,11.00
2022,04,17,15,34,10.90
2022,04,17,15,35,10.90
2022,04,17,15,36,10.90
2022,04,17,15,37,11.00
2022,04,17,15,38,11.10
2022,04,17,15,39,11.10
2022,04,17,15,40,11.20
2022,04,17,15,41,11.20
2022,04,17,15,42,11.20
2022,04,17,15,43,11.20
2022,04,17,15,44,11.10
2022,04,17,15,45,11.10
2022,04,17,15,46,11.10
2022,04,17,15,47,11.10
2022,04,17,15,48,11.10
2022,04,17,15,49,11.10
2022,04,17,15,50,11.00
2022,04,17,15,51,10.90
2022,04,17,15,52,11.00
2022,04,17,15,53,11.10
2022,04,17,15,54,11.10
2022,04,17,15,55,11.10
2022,04,17,15,56,11.10
2022,04,17,15,57,11.20
2022,04,17,15,58,11.10
2022,04,17,15,59,11.20
2022,04,17,16,00,11.20
2022,04,17,16,01,11.30
2022,04,17,16,02,11.40
2022,04,17,16,03,11.50
2022,04,17,16,04,11.60
2022,04,17,16,05,11.60
2022,04,17,16,06,11.60
2022,04,17,16,07,11.60
2022,04,17,16,08,11.60
2022,04,17,16,09,11.60
2022,04,17,16,10,11.60
2022,04,17,16,11,11.60
2022,04,17,16,12,11.60
2022,04,17,16,13,11.60
2022,04,17,16,14,11.50
2022,04,17,16,15,11.40
2022,04,17,16,16,11.40
2022,04,17,16,17,11.40
2022,04,17,16,18,11.40
2022,04,17,16,19,11.40
2022,04,17,16,20,11.40
2022,04,17,16,21,11.40
2022,04,17,16,22,11.40
2022,04,17,16,23,11.40
2022,04,17,16,24,11.40
2022,04,17,16,25,11.40
2022,04,17,16,26,11.40
2022,04,17,16,27,11.40
2022,04,17,16,28,11.40
2022,04,17,16,29,11.40
2022,04,17,16,30,11.40
2022,04,17,16,31,11.40
2022,04,17,16,32,11.40
2022,04,17,16,33,11.50
2022,04,17,16,34,11.60
2022,04,17,16,35,11.60
2022,04,17,16,36,11.60
2022,04,17,16,37,11.60
2022,04,17,16,38,11.60
2022,04,17,16,39,11.50
2022,04,17,16,40,11.40
2022,04,17,16,41,11.30
2022,04,17,16,42,11.30
2022,04,17,16,43,11.30
2022,04,17,16,44,11.30
2022,04,17,16,45,11.40
2022,04,17,16,46,11.30
2022,04,17,16,47,11.30
2022,04,17,16,48,11.30
2022,04,17,16,49,11.30
2022,04,17,16,50,11.20
2022,04,17,16,51,11.10
2022,04,17,16,52,11.10
2022,04,17,16,53,10.90
2022,04,17,16,54,10.90
2022,04,17,16,55,10.90
2022,04,17,16,56,10.90
2022,04,17,16,57,11.00
2022,04,17,16,58,11.10
2022,04,17,16,59,11.10
2022,04,17,17,00,11.10
2022,04,17,17,01,11.10
2022,04,17,17,02,11.20
2022,04,17,17,03,11.20
2022,04,17,17,04,11.10
2022,04,17,17,05,11.10
2022,04,17,17,06,11.10
2022,04,17,17,07,11.00
2022,04,17,17,08,10.90
2022,04,17,17,09,10.90
2022,04,17,17,10,10.80
2022,04,17,17,11,10.90
2022,04,17,17,12,10.90
2022,04,17,17,13,10.90
2022,04,17,17,14,10.90
2022,04,17,17,15,10.90
2022,04,17,17,16,10.90
2022,04,17,17,17,10.90
2022,04,17,17,18,10.90
2022,04,17,17,19,10.90
2022,04,17,17,20,10.90
2022,04,17,17,21,10.80
2022,04,17,17,22,10.80
2022,04,17,17,23,10.80
2022,04,17,17,24,10.80
2022,04,17,17,25,10.80
2022,04,17,17,26,10.80
2022,04,17,17,27,10.80
2022,04,17,17,28,10.80
2022,04,17,17,29,10.70
2022,04,17,17,30,10.70
2022,04,17,17,31,10.70
2022,04,17,17,32,10.70
2022,04,17,17,33,10.70
2022,04,17,17,34,10.70
2022,04,17,17,35,10.70
2022,04,17,17,36,10.60
2022,04,17,17,37,10.60
2022,04,17,17,38,10.60
2022,04,17,17,39,10.60
2022,04,17,17,40,10.60
2022,04,17,17,41,10.60
2022,04,17,17,42,10.70
2022,04,17,17,43,10.70
2022,04,17,17,44,10.70
2022,04,17,17,45,10.70
2022,04,17,17,46,10.70
2022,04,17,17,47,10.80
2022,04,17,17,48,10.80
2022,04,17,17,49,10.80
2022,04,17,17,50,10.80
2022,04,17,17,51,10.70
2022,04,17,17,52,10.70
2022,04,17,17,53,10.70
2022,04,17,17,54,10.70